Time,TemperatureF,DewpointF,PressureIn,WindDirection,WindDirectionDegrees,WindSpeedMPH,WindSpeedGustMPH,Humidity,HourlyPrecipIn,Conditions,Clouds,dailyrainin,SoftwareType,DateUTC
2013-01-24 00:00:00,47.5,45.4,30.05,North,0,0.0,0.0,92,0.00,,,0.00,WUHU216HW,2013-01-24 08:00:00,
2013-01-24 00:05:00,47.5,45.4,30.05,North,0,0.0,0.0,92,0.00,,,0.00,WUHU216HW,2013-01-24 08:05:00,
2013-01-24 00:10:00,47.5,45.4,30.05,North,0,0.0,0.0,92,0.00,,,0.00,WUHU216HW,2013-01-24 08:10:00,
2013-01-24 00:30:00,47.3,45.2,30.05,NNE,23,0.2,0.2,92,0.00,,,0.00,WUHU216HW,2013-01-24 08:30:00,
2013-01-24 00:35:00,47.3,45.2,30.05,NNE,23,0.2,0.2,92,0.00,,,0.00,WUHU216HW,2013-01-24 08:35:00,
2013-01-24 01:00:00,47.2,45.0,30.04,East,90,0.4,0.4,92,0.02,,,0.02,WUHU216HW,2013-01-24 09:00:00,
2013-01-24 01:05:00,47.2,45.0,30.04,East,90,0.2,0.4,92,0.02,,,0.02,WUHU216HW,2013-01-24 09:05:00,
2013-01-24 01:10:00,47.2,45.0,30.04,East,90,0.2,0.2,92,0.02,,,0.02,WUHU216HW,2013-01-24 09:10:00,
2013-01-24 01:30:00,47.2,45.0,30.05,East,90,0.0,0.0,92,0.02,,,0.02,WUHU216HW,2013-01-24 09:30:00,
2013-01-24 01:35:00,47.2,45.0,30.05,East,90,0.0,0.0,92,0.02,,,0.02,WUHU216HW,2013-01-24 09:35:00,
2013-01-24 02:00:00,47.3,45.2,30.05,West,270,0.0,0.0,92,0.00,,,0.02,WUHU216HW,2013-01-24 10:00:00,
2013-01-24 02:05:00,47.3,45.2,30.05,West,270,0.0,0.0,92,0.00,,,0.02,WUHU216HW,2013-01-24 10:05:00,
2013-01-24 02:30:00,47.3,45.2,30.05,North,0,0.0,0.0,92,0.00,,,0.02,WUHU216HW,2013-01-24 10:30:00,
2013-01-24 02:35:00,47.3,45.2,30.05,North,0,0.0,0.0,92,0.00,,,0.02,WUHU216HW,2013-01-24 10:35:00,
2013-01-24 03:00:00,47.3,45.2,30.04,SW,225,0.0,0.0,92,0.00,,,0.02,WUHU216HW,2013-01-24 11:00:00,
2013-01-24 03:05:00,47.3,45.2,30.04,SW,225,0.0,0.0,92,0.00,,,0.02,WUHU216HW,2013-01-24 11:05:00,
2013-01-24 03:30:00,47.3,45.2,30.05,SE,135,0.0,0.0,92,0.00,,,0.02,WUHU216HW,2013-01-24 11:30:00,
2013-01-24 03:35:00,47.3,45.2,30.05,SE,135,0.0,0.0,92,0.00,,,0.02,WUHU216HW,2013-01-24 11:35:00,
2013-01-24 04:00:00,47.3,45.2,30.05,ENE,68,0.4,0.4,92,0.00,,,0.02,WUHU216HW,2013-01-24 12:00:00,
2013-01-24 04:05:00,47.3,45.2,30.05,ENE,68,0.4,0.4,92,0.00,,,0.02,WUHU216HW,2013-01-24 12:05:00,
2013-01-24 04:30:00,47.2,45.0,30.05,NE,45,0.0,0.0,92,0.00,,,0.02,WUHU216HW,2013-01-24 12:30:00,
2013-01-24 04:35:00,47.2,45.0,30.05,NE,45,0.0,0.0,92,0.00,,,0.02,WUHU216HW,2013-01-24 12:35:00,
2013-01-24 05:00:00,47.3,45.2,30.05,NE,45,0.0,0.0,92,0.00,,,0.02,WUHU216HW,2013-01-24 13:00:00,
2013-01-24 05:05:00,47.3,45.2,30.05,NE,45,0.0,0.0,92,0.00,,,0.02,WUHU216HW,2013-01-24 13:05:00,
2013-01-24 05:10:00,47.3,45.2,30.05,NE,45,0.0,0.0,92,0.00,,,0.02,WUHU216HW,2013-01-24 13:10:00,
2013-01-24 05:30:00,47.5,45.4,30.04,South,180,0.4,0.4,92,0.00,,,0.02,WUHU216HW,2013-01-24 13:30:00,
2013-01-24 05:35:00,47.5,45.4,30.04,SSE,158,1.1,1.1,92,0.00,,,0.02,WUHU216HW,2013-01-24 13:35:00,
2013-01-24 05:40:00,47.5,45.4,30.04,SSE,158,1.1,1.1,92,0.00,,,0.02,WUHU216HW,2013-01-24 13:40:00,
2013-01-24 06:00:00,47.7,45.8,30.04,East,90,0.7,0.7,93,0.00,,,0.02,WUHU216HW,2013-01-24 14:00:00,
2013-01-24 06:05:00,47.7,45.8,30.04,East,90,0.7,0.7,93,0.00,,,0.02,WUHU216HW,2013-01-24 14:05:00,
2013-01-24 06:10:00,47.7,45.8,30.04,East,90,0.7,0.7,93,0.00,,,0.02,WUHU216HW,2013-01-24 14:10:00,
2013-01-24 06:30:00,48.1,46.2,30.05,ESE,113,1.3,1.6,93,0.00,,,0.02,WUHU216HW,2013-01-24 14:30:00,
2013-01-24 06:35:00,48.1,46.2,30.05,ESE,113,1.3,1.6,93,0.00,,,0.02,WUHU216HW,2013-01-24 14:35:00,
2013-01-24 07:00:00,48.2,46.4,30.05,SSW,203,0.4,0.4,93,0.00,,,0.02,WUHU216HW,2013-01-24 15:00:00,
2013-01-24 07:05:00,48.2,46.4,30.05,SSW,203,1.1,1.1,93,0.00,,,0.02,WUHU216HW,2013-01-24 15:05:00,
2013-01-24 07:30:00,48.4,46.5,30.07,ESE,113,0.0,0.0,93,0.00,,,0.02,WUHU216HW,2013-01-24 15:30:00,
2013-01-24 07:35:00,48.4,46.5,30.07,ESE,113,0.0,0.0,93,0.00,,,0.02,WUHU216HW,2013-01-24 15:35:00,
2013-01-24 07:40:00,48.4,46.5,30.07,ESE,113,0.0,0.0,93,0.00,,,0.02,WUHU216HW,2013-01-24 15:40:00,
2013-01-24 08:00:00,48.6,47.0,30.08,East,90,0.4,0.4,94,0.00,,,0.02,WUHU216HW,2013-01-24 16:00:00,
2013-01-24 08:05:00,48.6,46.7,30.08,East,90,0.2,0.4,93,0.00,,,0.02,WUHU216HW,2013-01-24 16:05:00,
2013-01-24 08:10:00,48.6,46.7,30.08,East,90,0.2,0.2,93,0.00,,,0.02,WUHU216HW,2013-01-24 16:10:00,
2013-01-24 08:30:00,49.3,47.6,30.08,SE,135,0.4,0.4,94,0.00,,,0.02,WUHU216HW,2013-01-24 16:30:00,
2013-01-24 08:35:00,49.1,47.4,30.08,ESE,113,0.4,0.4,94,0.00,,,0.02,WUHU216HW,2013-01-24 16:35:00,
2013-01-24 08:40:00,49.1,47.4,30.08,ESE,113,0.4,0.4,94,0.00,,,0.02,WUHU216HW,2013-01-24 16:40:00,
2013-01-24 09:00:00,50.4,48.7,30.10,SE,135,0.0,0.0,94,0.00,,,0.02,WUHU216HW,2013-01-24 17:00:00,
2013-01-24 09:05:00,50.4,48.7,30.10,SE,135,0.0,0.0,94,0.00,,,0.02,WUHU216HW,2013-01-24 17:05:00,
2013-01-24 09:10:00,50.4,48.7,30.10,SE,135,0.0,0.0,94,0.00,,,0.02,WUHU216HW,2013-01-24 17:10:00,
2013-01-24 09:30:00,51.5,49.5,30.10,WNW,293,0.7,0.7,93,0.00,,,0.02,WUHU216HW,2013-01-24 17:30:00,
2013-01-24 09:35:00,51.5,49.5,30.10,West,270,0.7,0.7,93,0.00,,,0.02,WUHU216HW,2013-01-24 17:35:00,
2013-01-24 09:40:00,51.5,49.5,30.10,West,270,0.7,0.7,93,0.00,,,0.02,WUHU216HW,2013-01-24 17:40:00,
2013-01-24 10:00:00,52.9,51.0,30.11,WNW,293,1.3,1.3,93,0.00,,,0.02,WUHU216HW,2013-01-24 18:00:00,
2013-01-24 10:05:00,52.9,51.0,30.11,WNW,293,1.3,1.3,93,0.00,,,0.02,WUHU216HW,2013-01-24 18:05:00,
2013-01-24 10:10:00,52.9,51.0,30.11,WNW,293,1.3,1.3,93,0.00,,,0.02,WUHU216HW,2013-01-24 18:10:00,
2013-01-24 10:30:00,52.7,50.4,30.12,West,270,0.0,0.0,92,0.00,,,0.02,WUHU216HW,2013-01-24 18:30:00,
2013-01-24 10:35:00,52.7,50.4,30.12,West,270,0.0,0.0,92,0.00,,,0.02,WUHU216HW,2013-01-24 18:35:00,
2013-01-24 11:00:00,53.3,50.4,30.12,ESE,113,0.4,0.4,90,0.00,,,0.02,WUHU216HW,2013-01-24 19:00:00,
2013-01-24 11:05:00,53.3,50.4,30.12,ENE,68,0.0,0.4,90,0.00,,,0.02,WUHU216HW,2013-01-24 19:05:00,
2013-01-24 11:30:00,54.2,50.7,30.12,West,270,0.2,0.2,88,0.00,,,0.02,WUHU216HW,2013-01-24 19:30:00,
2013-01-24 11:35:00,54.2,50.7,30.12,West,270,0.0,0.2,88,0.00,,,0.02,WUHU216HW,2013-01-24 19:35:00,
2013-01-24 11:40:00,54.2,50.7,30.12,West,270,0.0,0.0,88,0.00,,,0.02,WUHU216HW,2013-01-24 19:40:00,
2013-01-24 12:00:00,55.1,51.0,30.10,NNE,23,0.2,0.2,86,0.00,,,0.02,WUHU216HW,2013-01-24 20:00:00,
2013-01-24 12:05:00,55.1,51.0,30.10,NE,45,1.6,1.6,86,0.00,,,0.02,WUHU216HW,2013-01-24 20:05:00,
2013-01-24 12:30:00,55.8,50.7,30.08,SSE,158,0.7,0.7,83,0.00,,,0.02,WUHU216HW,2013-01-24 20:30:00,
2013-01-24 12:35:00,56.0,50.9,30.09,South,180,1.1,1.1,83,0.00,,,0.02,WUHU216HW,2013-01-24 20:35:00,
2013-01-24 13:00:00,56.3,50.9,30.08,ESE,113,0.4,0.4,82,0.00,,,0.02,WUHU216HW,2013-01-24 21:00:00,
2013-01-24 13:05:00,56.3,50.9,30.08,ESE,113,0.4,0.4,82,0.00,,,0.02,WUHU216HW,2013-01-24 21:05:00,
2013-01-24 13:30:00,56.3,50.9,30.08,SE,135,1.3,1.3,82,0.00,,,0.02,WUHU216HW,2013-01-24 21:30:00,
2013-01-24 13:35:00,56.3,50.9,30.08,SE,135,1.3,1.3,82,0.00,,,0.02,WUHU216HW,2013-01-24 21:35:00,
2013-01-24 14:00:00,55.8,50.9,30.07,ESE,113,2.5,2.5,84,0.00,,,0.02,WUHU216HW,2013-01-24 22:00:00,
2013-01-24 14:05:00,55.8,50.9,30.07,ESE,113,2.5,2.5,84,0.00,,,0.02,WUHU216HW,2013-01-24 22:05:00,
2013-01-24 14:10:00,55.8,50.9,30.07,ESE,113,2.5,2.5,84,0.00,,,0.02,WUHU216HW,2013-01-24 22:10:00,
2013-01-24 14:30:00,55.1,51.0,30.07,South,180,1.8,1.8,86,0.00,,,0.02,WUHU216HW,2013-01-24 22:30:00,
2013-01-24 14:35:00,55.1,51.0,30.07,South,180,1.8,1.8,86,0.00,,,0.02,WUHU216HW,2013-01-24 22:35:00,
2013-01-24 14:40:00,55.1,51.0,30.07,South,180,1.8,1.8,86,0.00,,,0.02,WUHU216HW,2013-01-24 22:40:00,
2013-01-24 15:00:00,54.4,50.6,30.08,East,90,0.7,0.7,87,0.00,,,0.02,WUHU216HW,2013-01-24 23:00:00,
2013-01-24 15:05:00,54.4,50.6,30.08,SSE,158,3.4,3.4,87,0.00,,,0.02,WUHU216HW,2013-01-24 23:05:00,
2013-01-24 15:10:00,54.4,50.6,30.08,SSE,158,3.4,3.4,87,0.00,,,0.02,WUHU216HW,2013-01-24 23:10:00,
2013-01-24 15:30:00,53.8,50.3,30.08,SE,135,1.1,1.1,88,0.04,,,0.06,WUHU216HW,2013-01-24 23:30:00,
2013-01-24 15:35:00,53.6,50.5,30.08,ENE,68,1.6,1.6,89,0.04,,,0.06,WUHU216HW,2013-01-24 23:35:00,
2013-01-24 16:00:00,53.5,50.3,30.09,South,180,0.2,0.2,89,0.06,,,0.08,WUHU216HW,2013-01-25 00:00:00,
2013-01-24 16:05:00,53.5,50.3,30.09,South,180,0.2,0.2,89,0.06,,,0.08,WUHU216HW,2013-01-25 00:05:00,
2013-01-24 16:30:00,52.9,50.3,30.10,ESE,113,0.4,0.4,91,0.09,,,0.15,WUHU216HW,2013-01-25 00:30:00,
2013-01-24 16:35:00,52.9,50.3,30.10,ESE,113,0.4,0.4,91,0.07,,,0.15,WUHU216HW,2013-01-25 00:35:00,
2013-01-24 17:00:00,52.4,49.8,30.10,South,180,0.7,0.7,91,0.09,,,0.17,WUHU216HW,2013-01-25 01:00:00,
2013-01-24 17:05:00,52.4,49.8,30.10,SSE,158,0.9,0.9,91,0.02,,,0.17,WUHU216HW,2013-01-25 01:05:00,
2013-01-24 17:10:00,52.4,49.8,30.10,SSE,158,0.9,0.9,91,0.02,,,0.17,WUHU216HW,2013-01-25 01:10:00,
2013-01-24 17:30:00,52.2,49.6,30.10,SSE,158,0.0,0.0,91,0.02,,,0.17,WUHU216HW,2013-01-25 01:30:00,
2013-01-24 17:35:00,52.2,49.6,30.10,SSE,158,0.0,0.0,91,0.02,,,0.17,WUHU216HW,2013-01-25 01:35:00,
2013-01-24 18:00:00,51.8,49.2,30.11,ESE,113,0.0,0.0,91,0.02,,,0.19,WUHU216HW,2013-01-25 02:00:00,
2013-01-24 18:05:00,51.8,49.2,30.11,ESE,113,0.0,0.0,91,0.02,,,0.19,WUHU216HW,2013-01-25 02:05:00,
2013-01-24 18:10:00,51.8,49.2,30.11,ESE,113,0.0,0.0,91,0.02,,,0.19,WUHU216HW,2013-01-25 02:10:00,
2013-01-24 18:30:00,51.5,48.9,30.13,ESE,113,0.0,0.0,91,0.02,,,0.19,WUHU216HW,2013-01-25 02:30:00,
2013-01-24 18:35:00,51.5,48.9,30.13,ESE,113,0.0,0.0,91,0.02,,,0.19,WUHU216HW,2013-01-25 02:35:00,
2013-01-24 19:00:00,51.3,48.7,30.14,SSE,158,0.4,0.4,91,0.00,,,0.19,WUHU216HW,2013-01-25 03:00:00,
2013-01-24 19:05:00,51.3,48.7,30.14,SSE,158,0.4,0.4,91,0.00,,,0.19,WUHU216HW,2013-01-25 03:05:00,
2013-01-24 19:10:00,51.3,48.7,30.14,SSE,158,0.4,0.4,91,0.00,,,0.19,WUHU216HW,2013-01-25 03:10:00,
2013-01-24 19:30:00,50.9,48.3,30.14,SE,135,0.0,0.0,91,0.00,,,0.19,WUHU216HW,2013-01-25 03:30:00,
2013-01-24 19:35:00,50.9,48.3,30.14,SE,135,0.0,0.0,91,0.00,,,0.19,WUHU216HW,2013-01-25 03:35:00,
2013-01-24 20:00:00,50.8,48.2,30.15,ESE,113,0.0,0.0,91,0.00,,,0.19,WUHU216HW,2013-01-25 04:00:00,
2013-01-24 20:05:00,50.8,48.2,30.15,ESE,113,0.0,0.0,91,0.00,,,0.19,WUHU216HW,2013-01-25 04:05:00,
2013-01-24 20:10:00,50.8,48.2,30.15,ESE,113,0.0,0.0,91,0.00,,,0.19,WUHU216HW,2013-01-25 04:10:00,
2013-01-24 20:30:00,50.6,48.0,30.14,ENE,68,0.0,0.0,91,0.00,,,0.19,WUHU216HW,2013-01-25 04:30:00,
2013-01-24 20:35:00,50.6,48.0,30.14,ENE,68,0.0,0.0,91,0.00,,,0.19,WUHU216HW,2013-01-25 04:35:00,
2013-01-24 21:01:00,50.4,47.8,30.15,ENE,68,0.0,0.0,91,0.00,,,0.19,WUHU216HW,2013-01-25 05:01:00,
2013-01-24 21:02:00,50.4,47.8,30.15,ENE,68,0.0,0.0,91,0.00,,,0.19,WUHU216HW,2013-01-25 05:02:00,
2013-01-24 21:03:00,50.4,47.8,30.15,ENE,68,0.0,0.0,91,0.00,,,0.19,WUHU216HW,2013-01-25 05:03:00,
2013-01-24 21:09:00,50.4,47.8,30.15,ENE,68,0.0,0.0,91,0.00,,,0.19,WUHU216HW,2013-01-25 05:09:00,
2013-01-24 21:30:00,50.2,47.6,30.15,ENE,68,0.2,0.2,91,0.00,,,0.19,WUHU216HW,2013-01-25 05:30:00,
2013-01-24 21:35:00,50.2,47.6,30.15,ENE,68,0.2,0.2,91,0.00,,,0.19,WUHU216HW,2013-01-25 05:35:00,
2013-01-24 21:40:00,50.2,47.6,30.15,ENE,68,0.2,0.2,91,0.00,,,0.19,WUHU216HW,2013-01-25 05:40:00,
2013-01-24 22:00:00,49.9,47.6,30.15,ENE,68,0.0,0.0,92,0.00,,,0.19,WUHU216HW,2013-01-25 06:00:00,
2013-01-24 22:05:00,49.9,47.6,30.15,ENE,68,0.0,0.0,92,0.00,,,0.19,WUHU216HW,2013-01-25 06:05:00,
2013-01-24 22:30:00,49.5,47.3,30.14,ENE,68,0.0,0.0,92,0.00,,,0.19,WUHU216HW,2013-01-25 06:30:00,
2013-01-24 22:35:00,49.3,47.1,30.14,ENE,68,0.0,0.0,92,0.00,,,0.19,WUHU216HW,2013-01-25 06:35:00,
2013-01-24 23:00:00,49.3,47.1,30.15,ENE,68,0.0,0.0,92,0.00,,,0.19,WUHU216HW,2013-01-25 07:00:00,
2013-01-24 23:05:00,49.3,47.1,30.15,ENE,68,0.0,0.0,92,0.00,,,0.19,WUHU216HW,2013-01-25 07:05:00,
2013-01-24 23:10:00,49.3,47.1,30.15,ENE,68,0.0,0.0,92,0.00,,,0.19,WUHU216HW,2013-01-25 07:10:00,